TimeEDT,TemperatureF,Dew PointF,Humidity,Sea Level PressureIn,VisibilityMPH,Wind Direction,Wind SpeedMPH,Gust SpeedMPH,PrecipitationIn,Events,Conditions,WindDirDegrees,DateUTC
12:56 AM,63.0,55.0,75,30.04,10.0,NW,5.8,-,N/A,,Scattered Clouds,310,2013-08-05 04:56:00
1:56 AM,63.0,55.9,78,30.04,10.0,Calm,Calm,-,N/A,,Mostly Cloudy,0,2013-08-05 05:56:00
2:56 AM,61.0,55.0,81,30.05,10.0,Calm,Calm,-,N/A,,Mostly Cloudy,0,2013-08-05 06:56:00
3:56 AM,62.1,54.0,75,30.06,10.0,NNW,4.6,-,N/A,,Mostly Cloudy,340,2013-08-05 07:56:00
4:56 AM,61.0,54.0,78,30.05,10.0,West,3.5,-,N/A,,Scattered Clouds,260,2013-08-05 08:56:00
5:56 AM,60.1,54.0,80,30.07,10.0,Calm,Calm,-,N/A,,Clear,0,2013-08-05 09:56:00
6:56 AM,61.0,55.0,81,30.09,10.0,Calm,Calm,-,N/A,,Clear,0,2013-08-05 10:56:00
7:56 AM,64.0,55.0,73,30.10,10.0,NW,6.9,-,N/A,,Clear,310,2013-08-05 11:56:00
8:56 AM,66.9,52.0,59,30.11,10.0,NNW,6.9,-,N/A,,Clear,340,2013-08-05 12:56:00
9:56 AM,69.1,48.9,49,30.11,10.0,NNE,4.6,-,N/A,,Clear,30,2013-08-05 13:56:00
10:56 AM,71.1,50.0,47,30.10,10.0,NNE,4.6,-,N/A,,Partly Cloudy,30,2013-08-05 14:56:00
11:56 AM,73.0,50.0,44,30.09,10.0,NW,9.2,-,N/A,,Partly Cloudy,310,2013-08-05 15:56:00
12:56 PM,73.9,51.1,45,30.08,10.0,West,8.1,-,N/A,,Scattered Clouds,280,2013-08-05 16:56:00
1:56 PM,75.0,48.9,40,30.06,10.0,West,5.8,-,N/A,,Scattered Clouds,270,2013-08-05 17:56:00
2:56 PM,75.9,48.0,37,30.04,10.0,Calm,Calm,-,N/A,,Mostly Cloudy,0,2013-08-05 18:56:00
3:56 PM,77.0,48.0,36,30.03,10.0,Calm,Calm,-,N/A,,Mostly Cloudy,0,2013-08-05 19:56:00
4:56 PM,75.0,48.0,38,30.02,10.0,Calm,Calm,-,N/A,,Mostly Cloudy,0,2013-08-05 20:56:00
5:56 PM,75.0,48.9,40,30.02,10.0,NNE,5.8,-,N/A,,Mostly Cloudy,20,2013-08-05 21:56:00
6:56 PM,73.0,51.1,46,30.04,10.0,ENE,4.6,-,N/A,,Mostly Cloudy,60,2013-08-05 22:56:00
7:56 PM,72.0,51.1,48,30.04,10.0,East,5.8,-,N/A,,Overcast,80,2013-08-05 23:56:00
8:56 PM,69.1,52.0,54,30.04,10.0,Calm,Calm,-,N/A,,Mostly Cloudy,0,2013-08-06 00:56:00
9:56 PM,68.0,54.0,61,30.05,10.0,SSE,3.5,-,N/A,,Mostly Cloudy,150,2013-08-06 01:56:00
10:56 PM,66.0,52.0,60,30.04,10.0,Calm,Calm,-,N/A,,Mostly Cloudy,0,2013-08-06 02:56:00
11:56 PM,64.0,53.1,67,30.04,10.0,Calm,Calm,-,N/A,,Scattered Clouds,0,2013-08-06 03:56:00